Regional Weather Roundup
Issued by NWS

Home | Current Version | Previous Version | Text Only | Print | Product List | Glossary On
Versions: 1 2 3 4 5 6 7 8 9 10 11 12 13 14 15 16 17 18 19 20 21 22 23 24 25 26 27 28 29 30 31 32 33 34 35 36 37 38 39 40 41 42 43 44 45 46 47 48 49 50
873
ASUS44 KMEG 252010
RWRTN
TENNESSEE HOURLY STATE WEATHER ROUNDUP
NATIONAL WEATHER SERVICE MEMPHIS TN
300 PM CDT SUN SEP 25 2016

TNZ002-004-019-021-049-052-054-088>092-252100-
WEST TENNESSEE

CITY           SKY/WX    TMP DP  RH WIND       PRES   REMARKS
MEMPHIS INTL   MOSUNNY   96  64  34 VRB3      29.99F HX  98
NWS MEMPHIS      N/A     95 N/A N/A MISG        N/A
JACKSON        SUNNY    N/A N/A N/A NE7       30.01F
DYERSBURG      SUNNY    N/A N/A N/A MISG      29.99F
UNION CITY     MOSUNNY   91  64  40 CALM      30.01F HX  93
PARIS          MOSUNNY   90  64  43 E3        30.04F HX  91
HUNTINGDON       N/A     91  64  40 SW5       30.02F HX  93
LEXINGTON      SUNNY     91  64  40 N6        30.02F HX  93
$$

TNZ008-025-027-028-033-062-065-066-252100-
NORTH MIDDLE TENNESSEE

CITY           SKY/WX    TMP DP  RH WIND       PRES   REMARKS
NASHVILLE      MOSUNNY   93  61  34 VRB7      30.03F HX  93
PORTLAND       SUNNY     88  64  45 CALM      30.04F
CLARKSVILLE    MOSUNNY   91  63  39 E6        30.03F HX  92
SMYRNA         MOSUNNY   93  60  33 NW8       30.02F HX  93
COOKEVILLE     SUNNY     93  66  40 VRB6      30.04F HX  96
GALLATIN       SUNNY     91  63  38 SW3       30.05F HX  92
CROSSVILLE     PTSUNNY   84  61  45 W9        30.11F
$$

TNZ061-075-076-078-094-096-097-252100-
SOUTH MIDDLE TENNESSEE

CITY           SKY/WX    TMP DP  RH WIND       PRES   REMARKS
FAYETTEVILLE   MOSUNNY   91  59  33 W5        30.03F HX  90
TULLAHOMA      SUNNY     91  57  31 W6        30.05F HX  90
WINCHESTER     MOSUNNY   91  64  40 VRB6      30.03F HX  93
MCMINNVILLE    SUNNY     93  63  36 N5        30.04F HX  94
COLUMBIA       SUNNY     93  63  36 CALM      30.01F HX  94
SHELBYVILLE    SUNNY     97  64  34 W6        30.04F HX  99
$$

TNZ017-018-042-046-047-252100-
NORTHEAST TENNESSEE

CITY           SKY/WX    TMP DP  RH WIND       PRES   REMARKS
TRI CITIES     MOSUNNY   90  59  35 CALM      30.08F
ELIZABETHTON   SUNNY     90  59  35 W8        30.07F
$$

TNZ012-013-036-069-073-074-252100-
CENTRAL EAST TENNESSEE

CITY           SKY/WX    TMP DP  RH WIND       PRES   REMARKS
KNOXVILLE      MOSUNNY   92  58  31 W9        30.03F HX  91
OAK RIDGE      SUNNY     93  57  29 VRB6      30.05F HX  91
DOWNTOWN KNOXV MOSUNNY   93  61  33 VRB5      30.03F HX  93
GATLINBURG       N/A     93  57  29 SW9       30.03F HX  92
MORRISTOWN     SUNNY     90  59  35 VRB6G13   30.06F
JACKSBORO      PTSUNNY   81  68  65 N6G12     30.08F
$$

TNZ083-085-099-252100-
SOUTHEAST TENNESSEE

CITY           SKY/WX    TMP DP  RH WIND       PRES   REMARKS
CHATTANOOGA    MOSUNNY   95  57  27 NW5       30.01F HX  94
$$

SKY/WX REPORTED AS FAIR MEANS FEW OR NO CLOUDS BELOW
12 THOUSAND FEET.





USA.gov is the U.S. government's official web portal to all federal, state and local government web resources and services.